Location: Newark
(46.8500°N, 5.1667°E)
Time: 08:06:42
(UTC+00:00)

ISS - Pass Details

Date: 18 September 2019
Orbit: 411 x 421 km, 51.6° (Epoch: 21 October)

Event Time Altitude Azimuth Distance (km) Brightness Sun altitude
Rises 19:17:17 0° 206° (SSW) 2,330 0.1 -16.1°
Reaches altitude 10° 19:19:40 10° 190° (S) 1,472 -1.1 -16.5°
Enters shadow 19:20:21 14° 181° (S) 1,271 -1.5 -16.6°
